Orbital Elements at Epoch 2459000.5 (2020-May-31.0) TDB
Reference: JPL 35 (heliocentric ecliptic J2000)
Element | Value | Uncertainty (1-sigma) | Units |
e | .08500480428780591 | 2.5197e-08 | |
a | 2.19608937670417 | 5.138e-09 | au |
q | 2.009411229038902 | 5.3892e-08 | au |
i | 1.980922348867077 | 2.2886e-06 | deg |
node | 92.92086181312798 | 9.9876e-05 | deg |
peri | 147.580379496165 | 0.00010174 | deg |
M | 56.81100846258198 | 1.9694e-05 | deg |
tp | 2458812.912696185015 (2019-Nov-25.41269619) | 6.5003e-05 | TDB |
period | 1188.703232013094 3.25 | 4.1716e-06 1.142e-08 | d yr |
n | .3028510315315054 | 1.0628e-09 | deg/d |
Q | 2.382767524369438 | 5.5747e-09 | au |
|
| | Orbit Determination Parameters
Additional Information
|